Location: Unspecified
(0.0000°N, 0.0000°E)
Time: 04:44:09
(UTC+01:00)

Hubble Space Telescope - Pass Details

Date: 28 October 2021
Orbit: 535 x 538 km, 28.5° (Epoch: 27 November)

Event Time Altitude Azimuth Distance (km) Brightness Sun altitude
Exits shadow 05:27:52 18° 123° (ESE) 1,346 3.4 -33.0°
Drops below altitude 10° 05:29:00 10° 122° (ESE) 1,783 4.2 -32.7°
Sets 05:31:16 0° 121° (ESE) 2,675 5.3 -32.2°
